K5UTC Weather Reports


Display with metric or nautical units.
time (UTC)temp
F
wind
direction
speed
MPH
gust
MPH
rain 1hr
in
rain 24hr
in
rain mn
in
humidity
%
barometer
mb
20260504070223 54 152 0.0 0.0 0.00 0.00 0.00 74 1015.0
20260504060143 52 149 0.0 0.0 0.00 0.00 0.00 81 1015.7
20260504050611 49 152 0.0 0.0 0.00 0.00 0.00 85 1016.0
20260504050108 49 141 0.0 0.0 0.00 0.00 0.00 86 1015.9
20260504045605 49 155 0.0 0.0 0.00 0.00 0.00 86 1016.0
20260504045100 50 144 0.0 0.0 0.00 0.00 0.00 86 1016.0
20260504044558 50 146 0.0 0.0 0.00 0.00 0.00 85 1016.1
20260504044055 50 135 0.0 0.0 0.00 0.00 0.00 86 1016.1
20260504043552 50 141 0.0 0.0 0.00 0.00 0.00 86 1016.1
20260504043049 50 143 0.0 0.0 0.00 0.00 0.00 86 1016.1
20260504042546 50 142 0.0 0.0 0.00 0.00 0.00 86 1016.0
20260504042043 50 149 0.0 0.0 0.00 0.00 0.00 86 1016.1
20260504041539 50 143 0.0 0.0 0.00 0.00 0.00 87 1016.1
20260504041035 50 139 0.0 0.0 0.00 0.00 0.00 86 1016.0
20260504040533 50 144 0.0 0.0 0.00 0.00 0.00 86 1016.2
20260504040029 50 147 0.0 0.0 0.00 0.00 0.00 84 1016.0
20260504035526 50 145 0.0 0.0 0.00 0.00 0.00 84 1016.2
20260504035023 50 141 0.0 0.0 0.00 0.00 0.00 85 1016.1
20260504034521 50 144 0.0 0.0 0.00 0.00 0.00 85 1016.2
20260504034017 50 141 0.0 0.0 0.00 0.00 0.00 85 1016.2
20260504033515 51 140 0.0 0.0 0.00 0.00 0.00 84 1016.2
20260504033012 51 142 0.0 0.0 0.00 0.00 0.00 84 1016.0
20260504032509 51 145 0.0 0.0 0.00 0.00 0.00 84 1016.2
20260504032006 50 145 0.0 0.0 0.00 0.00 0.00 84 1016.3
20260504031502 51 145 0.0 0.0 0.00 0.00 0.00 83 1016.3
20260504030959 51 143 0.0 0.0 0.00 0.00 0.00 83 1016.3
20260504030456 51 145 0.0 0.0 0.00 0.00 0.00 81 1016.2
20260504025952 51 147 0.0 0.0 0.00 0.00 0.00 80 1016.3
20260504025449 51 143 0.0 0.0 0.00 0.00 0.00 82 1016.4
20260504024946 51 151 0.0 0.0 0.00 0.00 0.00 82 1016.4
20260504024443 52 147 0.0 0.0 0.00 0.00 0.00 81 1016.5
20260504023940 52 148 0.0 0.0 0.00 0.00 0.00 80 1016.4
20260504023437 51 146 0.0 0.0 0.00 0.00 0.00 82 1016.5
20260504022932 52 146 0.0 0.0 0.00 0.00 0.00 83 1016.5
20260504022429 52 146 0.0 0.0 0.00 0.00 0.00 81 1016.4
20260504021925 52 146 0.0 0.0 0.00 0.00 0.00 79 1016.3
20260504021423 52 145 0.0 0.0 0.00 0.00 0.00 79 1016.6
20260504020920 53 146 0.0 0.0 0.00 0.00 0.00 79 1016.3
20260504020417 53 146 0.0 0.0 0.00 0.00 0.00 79 1016.3
20260504015913 52 146 0.0 0.0 0.00 0.00 0.00 81 1016.2
20260504015409 52 146 0.0 0.0 0.00 0.00 0.00 83 1016.1
20260504014905 53 145 0.0 0.0 0.00 0.00 0.00 83 1016.0
20260504014401 53 144 0.0 0.0 0.00 0.00 0.00 81 1015.8
20260504013858 54 144 0.0 0.0 0.00 0.00 0.00 77 1016.0
20260504013357 54 142 0.0 0.0 0.00 0.00 0.00 77 1016.1
20260504012853 54 146 0.0 0.0 0.00 0.00 0.00 78 1016.1
20260504012351 54 146 0.0 0.0 0.00 0.00 0.00 75 1016.1
20260504011848 55 146 0.0 0.0 0.00 0.00 0.00 76 1016.0
20260504011344 56 146 0.0 0.0 0.00 0.00 0.00 75 1016.0
20260504010841 56 147 0.0 0.0 0.00 0.00 0.00 76 1015.8
20260504010336 57 146 0.0 0.0 0.00 0.00 0.00 73 1015.9
20260504005833 57 146 0.0 1.0 0.00 0.00 0.00 72 1015.7
20260504005330 57 147 0.0 0.0 0.00 0.00 0.00 73 1015.8
20260504004827 58 147 0.0 0.0 0.00 0.00 0.00 71 1015.7
20260504004325 59 148 0.0 0.0 0.00 0.00 0.00 69 1015.5
20260504003821 59 148 0.0 0.0 0.00 0.00 0.00 68 1015.7
20260504003318 60 148 0.0 0.0 0.00 0.00 0.00 66 1015.5
20260504002815 60 147 0.0 0.0 0.00 0.00 0.00 65 1015.6
20260504002312 61 145 0.0 0.0 0.00 0.00 0.00 64 1015.7
20260504001810 61 145 0.0 0.0 0.00 0.00 0.00 63 1015.6
20260504001307 62 150 0.0 0.0 0.00 0.00 0.00 61 1015.7
20260504000803 63 152 0.0 0.0 0.00 0.00 0.00 59 1015.6
20260504000300 63 146 0.0 0.0 0.00 0.00 0.00 57 1015.6
20260503235758 64 145 0.0 0.0 0.00 0.00 0.00 55 1015.8
20260503235255 64 148 0.0 0.0 0.00 0.00 0.00 53 1015.6
20260503234753 64 144 0.0 0.0 0.00 0.00 0.00 52 1015.9
20260503234251 65 153 0.0 0.0 0.00 0.00 0.00 55 1015.9
20260503233748 66 149 0.0 0.0 0.00 0.00 0.00 51 1015.7
20260503233243 66 154 0.0 0.0 0.00 0.00 0.00 50 1015.9
20260503232741 66 146 0.0 0.0 0.00 0.00 0.00 50 1016.0
20260503232238 66 123 1.0 1.0 0.00 0.00 0.00 49 1016.1
20260503231736 66 155 0.0 1.0 0.00 0.00 0.00 50 1016.1
20260503231232 67 152 0.0 0.0 0.00 0.00 0.00 46 1016.2
20260503230728 67 148 0.0 0.0 0.00 0.00 0.00 46 1016.1
20260503230226 68 158 1.0 1.0 0.00 0.00 0.00 47 1016.2
20260503225723 68 146 0.0 0.0 0.00 0.00 0.00 43 1016.3
20260503225223 68 151 0.0 1.0 0.00 0.00 0.00 43 1016.2
20260503224721 69 171 1.0 1.0 0.00 0.00 0.00 45 1016.2
20260503224218 69 166 0.0 0.0 0.00 0.00 0.00 42 1016.3
20260503223716 70 152 0.0 1.0 0.00 0.00 0.00 42 1016.4
20260503223213 72 203 0.0 1.0 0.00 0.00 0.00 42 1016.4
20260503222709 72 157 1.0 1.0 0.00 0.00 0.00 38 1016.3
20260503222207 74 163 1.0 1.0 0.00 0.00 0.00 39 1016.5
20260503221706 74 163 0.0 0.0 0.00 0.00 0.00 38 1016.6
20260503221203 74 173 1.0 1.0 0.00 0.00 0.00 37 1016.5
20260503220659 73 162 0.0 1.0 0.00 0.00 0.00 36 1016.4
20260503220156 72 215 1.0 1.0 0.00 0.00 0.00 37 1016.4
20260503215653 73 139 1.0 1.0 0.00 0.00 0.00 40 1016.5
20260503215149 74 247 1.0 1.0 0.00 0.00 0.00 39 1016.5
20260503214649 74 153 0.0 0.0 0.00 0.00 0.00 42 1016.4
20260503214144 73 77 4.0 7.0 0.00 0.00 0.00 36 1016.6
20260503213643 73 148 1.0 1.0 0.00 0.00 0.00 36 1016.7
20260503213140 73 197 2.0 2.0 0.00 0.00 0.00 40 1016.7
20260503212637 74 64 3.0 3.0 0.00 0.00 0.00 38 1016.8
20260503212134 73 160 0.0 0.0 0.00 0.00 0.00 41 1016.8
20260503211633 73 116 1.0 1.0 0.00 0.00 0.00 36 1017.0
20260503211133 73 186 1.0 2.0 0.00 0.00 0.00 35 1017.1
20260503210629 75 235 2.0 3.0 0.00 0.00 0.00 34 1017.0
20260503210126 74 153 0.0 0.0 0.00 0.00 0.00 35 1017.0
20260503205622 74 176 1.0 1.0 0.00 0.00 0.00 37 1017.1
20260503205118 74 202 1.0 2.0 0.00 0.00 0.00 35 1017.1
20260503204615 74 232 2.0 3.0 0.00 0.00 0.00 38 1017.2
20260503204113 74 155 1.0 2.0 0.00 0.00 0.00 39 1017.3
20260503203610 73 192 1.0 1.0 0.00 0.00 0.00 43 1017.5
20260503203107 74 208 1.0 1.0 0.00 0.00 0.00 41 1017.5
20260503202604 74 229 1.0 1.0 0.00 0.00 0.00 40 1017.7
20260503202102 74 124 1.0 1.0 0.00 0.00 0.00 37 1017.6
20260503201600 73 215 1.0 2.0 0.00 0.00 0.00 41 1017.9
20260503201057 73 111 2.0 3.0 0.00 0.00 0.00 38 1017.9
20260503200553 73 163 0.0 1.0 0.00 0.00 0.00 44 1017.9
20260503200050 72 96 1.0 2.0 0.00 0.00 0.00 43 1017.9
20260503195547 70 174 2.0 3.0 0.00 0.00 0.00 46 1018.3
20260503195044 71 144 0.0 1.0 0.00 0.00 0.00 39 1018.5
20260503194541 73 163 0.0 1.0 0.00 0.00 0.00 41 1018.3
20260503194041 71 153 1.0 1.0 0.00 0.00 0.00 47 1018.5
20260503193538 71 173 1.0 2.0 0.00 0.00 0.00 44 1018.5
20260503193033 71 100 2.0 3.0 0.00 0.00 0.00 39 1018.7
20260503192530 71 173 1.0 1.0 0.00 0.00 0.00 42 1018.7
20260503192026 71 112 2.0 2.0 0.00 0.00 0.00 44 1018.8
20260503191522 72 220 4.0 6.0 0.00 0.00 0.00 39 1018.9
20260503191019 71 166 1.0 2.0 0.00 0.00 0.00 39 1019.0
20260503190516 71 312 2.0 2.0 0.00 0.00 0.00 41 1019.0
20260503190014 71 110 1.0 2.0 0.00 0.00 0.00 42 1019.0
20260503185510 71 170 1.0 1.0 0.00 0.00 0.00 45 1019.2
20260503185009 72 181 0.0 0.0 0.00 0.00 0.00 37 1019.0
20260503184506 72 184 1.0 1.0 0.00 0.00 0.00 45 1019.2
20260503184002 71 195 0.0 1.0 0.00 0.00 0.00 49 1019.3
20260503183459 69 128 1.0 1.0 0.00 0.00 0.00 46 1019.4
20260503182956 70 173 1.0 2.0 0.00 0.00 0.00 52 1019.3
20260503182455 70 265 3.0 3.0 0.00 0.00 0.00 39 1019.3
20260503181952 69 167 1.0 1.0 0.00 0.00 0.00 42 1019.5
20260503181449 70 2 3.0 3.0 0.00 0.00 0.00 41 1019.3
20260503180945 70 169 3.0 4.0 0.00 0.00 0.00 38 1019.4
20260503180443 70 184 1.0 1.0 0.00 0.00 0.00 47 1019.7
20260503175940 68 270 1.0 2.0 0.00 0.00 0.00 45 1019.4
20260503175438 69 80 1.0 2.0 0.00 0.00 0.00 46 1019.7
20260503174939 68 178 1.0 1.0 0.00 0.00 0.00 41 1019.6
20260503174437 70 240 1.0 2.0 0.00 0.00 0.00 48 1019.9
20260503173932 70 183 1.0 1.0 0.00 0.00 0.00 43 1019.8
20260503173428 69 245 1.0 2.0 0.00 0.00 0.00 45 1019.9
20260503172925 69 150 1.0 1.0 0.00 0.00 0.00 46 1019.9
20260503172423 68 173 1.0 1.0 0.00 0.00 0.00 40 1020.0
20260503171918 67 97 1.0 2.0 0.00 0.00 0.00 40 1020.2
20260503171415 68 176 2.0 3.0 0.00 0.00 0.00 43 1020.2
20260503170913 68 194 1.0 1.0 0.00 0.00 0.00 46 1020.3
20260503170409 67 182 0.0 2.0 0.00 0.00 0.00 50 1020.4
20260503150801 60 132 1.0 1.0 0.00 0.00 0.00 52 1020.9
20260503150257 61 319 4.0 4.0 0.00 0.00 0.00 50 1020.9
20260503140222 60 88 1.0 2.0 0.00 0.00 0.00 66 1020.8
20260503131151 56 119 0.0 0.0 0.00 0.00 0.00 78 1020.9
20260503130649 55 112 1.0 1.0 0.00 0.00 0.00 79 1020.5
20260503130146 55 102 0.0 1.0 0.00 0.00 0.00 81 1020.5
20260503120112 50 143 0.0 0.0 0.00 0.00 0.00 98 1020.2
20260503110539 41 145 0.0 0.0 0.00 0.00 0.00 98 1019.7
20260503090426 43 143 0.0 0.0 0.00 0.00 0.00 98 1019.2
20260503081352 43 143 0.0 0.0 0.00 0.00 0.00 98 1018.9
20260503080849 43 142 0.0 0.0 0.00 0.00 0.00 98 1018.8
20260503080346 43 142 0.0 0.0 0.00 0.00 0.00 98 1018.9
20260503072823 44 142 0.0 0.0 0.00 0.00 0.00 98 1018.5
20260503072320 44 142 0.0 0.0 0.00 0.00 0.00 98 1018.7